Regional Weather Roundup
Issued by NWS

Home | Current Version | Previous Version | Graphics & Text | Print | Product List | Glossary On
Versions: 1 2 3 4 5 6 7 8 9 10 11 12 13 14 15 16 17 18 19 20 21 22 23 24 25 26 27 28 29 30 31 32 33 34 35 36 37 38 39 40 41 42 43 44 45 46 47 48 49 50
000
ASUS43 KDMX 010801
RWRIA

WEATHER ROUNDUP FOR IOWA
NATIONAL WEATHER SERVICE DES MOINES IA
200 AM CST WED MAR 01 2017

NOTE: "FAIR" INDICATES FEW OR NO CLOUDS BELOW 12,000 FEET WITH NO
SIGNIFICANT WEATHER AND/OR OBSTRUCTIONS TO VISIBILITY.

* - THESE STATIONS ARE NOT NWS STATIONS...THUS NOT UNDER NWS
QUALITY CONTROL.  THEY ALSO DO NOT REPORT WEATHER SUCH
AS PRECIPITATION OR FOG.

IAZ001>003-012>014-020>022-031>034-043>046-010900-
   NORTHWEST IOWA

CITY           SKY/WX    TMP DP  RH WIND       PRES   REMARKS
CARROLL *      CLOUDY    36  36 100 NW16G22   29.72R FOG     WCI  26
CHEROKEE *     CLOUDY    32  32 100 NW12      29.75F FOG     WCI  23
DENISON *      CLOUDY    34  32  93 NW13      29.74R FOG     WCI  25
LE MARS *      CLOUDY    34  32  93 NW10G16   29.79F FOG     WCI  26
SHELDON *      MIX PCPN  32  32 100 NW10      29.74F WCI  24
SIOUX CITY     CLOUDY    34  30  85 NW13G24   29.80S WCI  25
SPENCER        CLOUDY    33  31  92 NW16      29.74R FOG     WCI  23
STORM LAKE *   FOG       32  32 100 NW13      29.73R VSB 1   WCI  22
$$

IAZ055>058-069>071-079>083-090>094-010900-
   SOUTHWEST IOWA

CITY           SKY/WX    TMP DP  RH WIND       PRES   REMARKS
ATLANTIC *     CLOUDY    36  36 100 NW15G22   29.77R FOG     WCI  26
AUDUBON *      CLOUDY    34  32  93 NW12G20   29.75R FOG     WCI  25
CLARINDA *     CLOUDY    37  36  93 NW13G28   29.80R WCI  29
COUNCIL BLFS * CLOUDY    36  36 100 NW10G21   29.78R WCI  28
CRESTON *      CLOUDY    37  36  93 NW15G22   29.72R WCI  28
HARLAN  *      CLOUDY    36  36 100 NW17G25   29.78S WCI  25
LAMONI         LGT RAIN  40  37  89 NW10      29.70R WCI  33
RED OAK *      CLOUDY    37  36  93 NW14G22   29.78R WCI  29
SHENANDOAH *   CLOUDY    37  36  93 NW13G22   29.80R WCI  29
$$

IAZ047>049-059>061-072>074-084-010900-
   CENTRAL IOWA

CITY           SKY/WX    TMP DP  RH WIND       PRES   REMARKS
AMES           CLOUDY    36  36 100 NW20G26   29.67R WCI  25
ANKENY *       CLOUDY    37  36  93 NW7G15    29.69R WCI  32
BOONE *        CLOUDY    36  36 100 NW13      29.66R FOG     WCI  27
CHARITON *     CLOUDY    39  37  93 NW14      29.68S WCI  31
DES MOINES     CLOUDY    38  35  89 NW13      29.68R WCI  30
GRINNELL*      DRIZZLE   38  37  95 NW13G22   29.65R WCI  30
KNOXVILLE *    MIX PCPN  39  37  93 NW16      29.65R WCI  30
MARSHALLTOWN   CLOUDY    37  36  96 NW18      29.63R FOG     WCI  27
NEWTON *       CLOUDY    39  37  93 NW15      29.64R WCI  31
PELLA *        LGT RAIN  40  38  93 NW12      29.66R WCI  32
PERRY *        CLOUDY    36  34  95 NW13      29.69R FOG     WCI  27
$$

IAZ004>006-015-016-023>025-035-036-010900-
   NORTH CENTRAL IOWA

CITY           SKY/WX    TMP DP  RH WIND       PRES   REMARKS
ALGONA *       CLOUDY    32  32 100 N14G23    29.67F FOG     WCI  22
CLARION *      CLOUDY    32  32 100 NW18      29.65F FOG     WCI  20
ESTHERVILLE    CLOUDY    31  31 100 N17       29.70F WCI  19
FORT DODGE *   CLOUDY    34  28  80 N9G16     29.68S WCI  26
MASON CITY     CLOUDY    33  31  92 NW15      29.64F FOG     WCI  23
FOREST CITY *  CLOUDY    32  32 100 N13       29.65F FOG     WCI  22
WEBSTER CITY * CLOUDY    34  32  93 NW17      29.64F FOG     WCI  23
IOWA FALLS *   CLOUDY    36  34  93 NW16      29.65R FOG     WCI  26
$$

IAZ007>011-017>019-026>030-037>042-050>054-066-010900-
   NORTHEAST IOWA

CITY           SKY/WX    TMP DP  RH WIND       PRES   REMARKS
CEDAR RAPIDS   CLOUDY    40  40 100 NW16      29.56F FOG     WCI  31
CHARLES CITY * CLOUDY    34  34 100 NW18      29.60F WCI  23
CLINTON *      CLOUDY    45  45 100 W10       29.50F FOG
DECORAH *      CLOUDY    37  37 100 N10G17    29.54F FOG     WCI  30
DUBUQUE        FOG       42  42 100 NW13      29.52S VSB 1/4
MONTICELLO *   CLOUDY    43  43 100 NW10      29.54R FOG
OELWEIN *      CLOUDY    37  37 100 N14G21    29.56F FOG     WCI  29
WATERLOO       CLOUDY    37  35  92 NW15      29.60R FOG     WCI  28
$$

IAZ064-065-067-068-078-010900-
   EAST CENTRAL IOWA

CITY           SKY/WX    TMP DP  RH WIND       PRES   REMARKS
DAVENPORT      CLOUDY    48  46  93 W14       29.52R FOG
IOWA CITY      CLOUDY    43  41  93 NW12      29.58S FOG
MUSCATINE *    CLOUDY    45  43  93 NW18      29.55F FOG
QUAD CITIES    CLOUDY    50  47  89 W13       29.51R FOG
$$

IAZ062-063-075>077-085>089-095>099-010900-
   SOUTHEAST IOWA

CITY           SKY/WX    TMP DP  RH WIND       PRES   REMARKS
BURLINGTON     CLOUDY    49  47  93 W8        29.56F
FAIRFIELD *    CLOUDY    41  39  93 NW21G28   29.58F FOG
FORT MADISON * CLOUDY    48  46  93 W14       29.58F
KEOKUK *       LGT RAIN  50  46  87 NW9G16    29.57F
OTTUMWA        CLOUDY    40  39  97 NW20G25   29.62S FOG     WCI  30
WASHINGTON *   CLOUDY    41  41 100 W17G26    29.59F FOG
$$

ABBREVIATIONS USED IN REMARKS
   TC - TEMPERATURES IN CELSIUS
  WCI - WIND CHILL INDEX
   HX - HEAT INDEX
  VSB - VISIBILITY
$$





USA.gov is the U.S. government's official web portal to all federal, state and local government web resources and services.